JAL330 RJFF-RJTT

Flight info

Callsign JAL330
Flight time 1h 25m
Altitude 41000
Route IPRIR Y231 OMKAT Y235 FLUTE Y23 ARTIC Y71 XAC
Aircraft A359/H-SDE2E3GHIJ3J4J5LM1ORWXY/LB1D1

Departure

Time 2026-05-07 13:10
Airport Fukuoka Airport (RJFF)

Arrival

Time 2026-05-07 14:35
Airport Tokyo Haneda International Airport (RJTT)
Time Latitude Longitude Altitude Speed Heading
2026-05-07 12:39 33.59788 130.44689 31 ft 0 kts 60°
2026-05-07 12:57 33.59782 130.44677 31 ft 4 kts 60°
2026-05-07 12:57 33.59768 130.44648 30 ft 4 kts 60°
2026-05-07 12:58 33.59756 130.44626 29 ft 4 kts 34°
2026-05-07 12:58 33.59739 130.44617 30 ft 4 kts 351°
2026-05-07 12:58 33.59716 130.44627 30 ft 4 kts 331°
2026-05-07 12:58 33.59697 130.44639 29 ft 4 kts 330°
2026-05-07 12:59 33.59674 130.44655 30 ft 4 kts 330°
2026-05-07 12:59 33.59667 130.44660 29 ft 0 kts 330°
2026-05-07 13:02 33.59694 130.44638 31 ft 10 kts 321°
2026-05-07 13:02 33.59694 130.44582 31 ft 6 kts 225°
2026-05-07 13:02 33.59651 130.44576 31 ft 7 kts 161°
2026-05-07 13:03 33.59599 130.44608 31 ft 10 kts 152°
2026-05-07 13:03 33.59531 130.44654 31 ft 13 kts 150°
2026-05-07 13:03 33.59446 130.44712 31 ft 15 kts 150°
2026-05-07 13:03 33.59347 130.44781 30 ft 18 kts 150°
2026-05-07 13:04 33.59230 130.44861 31 ft 20 kts 150°
2026-05-07 13:04 33.59104 130.44946 32 ft 22 kts 150°
2026-05-07 13:04 33.58968 130.45039 32 ft 23 kts 150°
2026-05-07 13:04 33.58822 130.45138 33 ft 25 kts 150°
2026-05-07 13:05 33.58668 130.45244 34 ft 26 kts 150°
2026-05-07 13:05 33.58506 130.45353 35 ft 27 kts 150°
2026-05-07 13:05 33.58342 130.45465 39 ft 27 kts 150°
2026-05-07 13:05 33.58172 130.45582 40 ft 29 kts 150°
2026-05-07 13:06 33.57998 130.45700 43 ft 29 kts 150°
2026-05-07 13:06 33.57826 130.45818 48 ft 28 kts 150°
2026-05-07 13:06 33.57668 130.45902 50 ft 20 kts 190°
2026-05-07 13:06 33.57613 130.45845 51 ft 0 kts 234°
2026-05-07 13:08 33.57592 130.45775 50 ft 12 kts 273°
2026-05-07 13:08 33.57615 130.45735 49 ft 0 kts 327°
2026-05-07 13:09 33.57630 130.45724 49 ft 14 kts 329°
2026-05-07 13:10 33.57966 130.45494 45 ft 96 kts 330°
2026-05-07 13:10 33.58751 130.44958 87 ft 158 kts 330°
2026-05-07 13:10 33.59744 130.44290 747 ft 165 kts 331°
2026-05-07 13:10 33.60767 130.43613 1488 ft 175 kts 329°
2026-05-07 13:11 33.61900 130.42844 1791 ft 198 kts 328°
2026-05-07 13:11 33.63163 130.41977 2033 ft 220 kts 328°
2026-05-07 13:11 33.64638 130.41146 2199 ft 250 kts 344°
2026-05-07 13:11 33.66412 130.41288 2657 ft 267 kts 20°
2026-05-07 13:12 33.67902 130.42629 3246 ft 274 kts 53°
2026-05-07 13:12 33.68769 130.44674 3913 ft 277 kts 71°
2026-05-07 13:12 33.69156 130.46903 4571 ft 278 kts 90°
2026-05-07 13:12 33.68875 130.49172 5214 ft 276 kts 113°
2026-05-07 13:13 33.67852 130.51091 5840 ft 274 kts 139°
2026-05-07 13:13 33.66301 130.52416 6425 ft 275 kts 153°
2026-05-07 13:13 33.64615 130.53517 7013 ft 278 kts 156°
2026-05-07 13:13 33.62835 130.54466 7632 ft 281 kts 161°
2026-05-07 13:14 33.61008 130.55359 8474 ft 286 kts 162°
2026-05-07 13:14 33.59156 130.56266 9470 ft 289 kts 162°
2026-05-07 13:14 33.57279 130.57195 10286 ft 297 kts 162°
2026-05-07 13:14 33.55303 130.58175 10711 ft 319 kts 162°
2026-05-07 13:15 33.53169 130.59234 11043 ft 342 kts 162°
2026-05-07 13:15 33.50910 130.60352 11460 ft 359 kts 162°
2026-05-07 13:15 33.48573 130.61512 12102 ft 367 kts 162°
2026-05-07 13:15 33.46201 130.62700 12809 ft 373 kts 162°
2026-05-07 13:16 33.43901 130.64239 13504 ft 387 kts 147°
2026-05-07 13:16 33.41965 130.66548 14151 ft 398 kts 135°
2026-05-07 13:16 33.40222 130.69080 14786 ft 402 kts 133°
2026-05-07 13:16 33.38467 130.71700 15420 ft 406 kts 133°
2026-05-07 13:17 33.36686 130.74344 16066 ft 409 kts 134°
2026-05-07 13:17 33.34889 130.76990 16621 ft 411 kts 134°
2026-05-07 13:17 33.33126 130.79721 16894 ft 417 kts 128°
2026-05-07 13:17 33.31881 130.82885 16951 ft 428 kts 109°
2026-05-07 13:18 33.31534 130.86449 17191 ft 439 kts 89°
2026-05-07 13:18 33.32108 130.90049 17838 ft 444 kts 75°
2026-05-07 13:18 33.33020 130.93592 18441 ft 448 kts 73°
2026-05-07 13:18 33.33969 130.97162 19025 ft 452 kts 73°
2026-05-07 13:19 33.34903 131.00772 19607 ft 456 kts 73°
2026-05-07 13:19 33.35821 131.04417 20196 ft 460 kts 74°
2026-05-07 13:19 33.36733 131.08105 20756 ft 464 kts 74°
2026-05-07 13:19 33.37643 131.11825 21325 ft 468 kts 74°
2026-05-07 13:20 33.38507 131.15602 21895 ft 472 kts 77°
2026-05-07 13:20 33.39325 131.19433 22471 ft 477 kts 77°
2026-05-07 13:20 33.40155 131.23291 23035 ft 481 kts 77°
2026-05-07 13:20 33.40995 131.27185 23567 ft 485 kts 77°
2026-05-07 13:21 33.41840 131.31105 24073 ft 488 kts 76°
2026-05-07 13:21 33.42688 131.35054 24602 ft 491 kts 76°
2026-05-07 13:21 33.43528 131.38970 25120 ft 494 kts 76°
2026-05-07 13:21 33.44384 131.42980 25621 ft 498 kts 76°
2026-05-07 13:22 33.45241 131.47002 26113 ft 500 kts 76°
2026-05-07 13:22 33.46098 131.51036 26346 ft 502 kts 76°
2026-05-07 13:22 33.46962 131.55104 26592 ft 504 kts 76°
2026-05-07 13:22 33.47825 131.59173 26826 ft 505 kts 76°
2026-05-07 13:23 33.48691 131.63268 27049 ft 508 kts 76°
2026-05-07 13:23 33.49557 131.67377 27317 ft 509 kts 76°
2026-05-07 13:23 33.50425 131.71494 27583 ft 511 kts 76°
2026-05-07 13:23 33.51293 131.75623 27850 ft 512 kts 76°
2026-05-07 13:24 33.52164 131.79770 28126 ft 514 kts 76°
2026-05-07 13:24 33.53036 131.83927 28401 ft 515 kts 76°
2026-05-07 13:24 33.53908 131.88098 28675 ft 517 kts 76°
2026-05-07 13:24 33.54784 131.92289 28948 ft 519 kts 76°
2026-05-07 13:25 33.55660 131.96491 29215 ft 520 kts 76°
2026-05-07 13:25 33.56538 132.00711 29489 ft 522 kts 76°
2026-05-07 13:25 33.57418 132.04945 29779 ft 524 kts 76°
2026-05-07 13:25 33.58299 132.09196 30045 ft 526 kts 76°
2026-05-07 13:26 33.59184 132.13471 30363 ft 529 kts 76°
2026-05-07 13:26 33.60072 132.17773 30763 ft 531 kts 76°
2026-05-07 13:26 33.60961 132.22085 31151 ft 534 kts 76°
2026-05-07 13:26 33.61852 132.26414 31512 ft 536 kts 76°
2026-05-07 13:27 33.62735 132.30715 31863 ft 539 kts 76°
2026-05-07 13:27 33.63632 132.35093 32211 ft 541 kts 76°
2026-05-07 13:27 33.64532 132.39492 32545 ft 544 kts 76°
2026-05-07 13:27 33.65433 132.43904 32877 ft 546 kts 76°
2026-05-07 13:28 33.66334 132.48328 33349 ft 545 kts 75°
2026-05-07 13:28 33.67230 132.52736 33854 ft 543 kts 75°
2026-05-07 13:28 33.68123 132.57135 34264 ft 542 kts 75°
2026-05-07 13:28 33.69014 132.61533 34639 ft 541 kts 75°
2026-05-07 13:29 33.69903 132.65931 35012 ft 541 kts 75°
2026-05-07 13:29 33.70789 132.70319 35400 ft 540 kts 75°
2026-05-07 13:29 33.71669 132.74694 35819 ft 538 kts 75°
2026-05-07 13:29 33.72548 132.79069 36179 ft 538 kts 76°
2026-05-07 13:30 33.73427 132.83449 36507 ft 538 kts 76°
2026-05-07 13:30 33.74303 132.87821 36854 ft 538 kts 76°
2026-05-07 13:30 33.75164 132.92131 37206 ft 537 kts 76°
2026-05-07 13:30 33.76036 132.96498 37541 ft 537 kts 76°
2026-05-07 13:31 33.76908 133.00864 37897 ft 536 kts 76°
2026-05-07 13:31 33.77775 133.05223 38212 ft 535 kts 76°
2026-05-07 13:31 33.78650 133.09579 38550 ft 536 kts 74°
2026-05-07 13:31 33.79745 133.13863 38814 ft 535 kts 70°
2026-05-07 13:32 33.80923 133.18103 39049 ft 535 kts 70°
2026-05-07 13:32 33.82118 133.22277 39286 ft 534 kts 69°
2026-05-07 13:32 33.83347 133.26504 39540 ft 534 kts 69°
2026-05-07 13:32 33.84575 133.30721 39734 ft 535 kts 69°
2026-05-07 13:33 33.85806 133.34953 39907 ft 536 kts 69°
2026-05-07 13:33 33.87037 133.39193 40105 ft 536 kts 69°
2026-05-07 13:33 33.88263 133.43440 40301 ft 537 kts 69°
2026-05-07 13:33 33.89484 133.47687 40514 ft 536 kts 70°
2026-05-07 13:34 33.90703 133.51929 40734 ft 537 kts 69°
2026-05-07 13:34 33.92744 133.59023 40872 ft 541 kts 70°
2026-05-07 13:35 33.93628 133.62113 40926 ft 543 kts 70°
2026-05-07 13:35 33.96091 133.70765 40949 ft 549 kts 70°
2026-05-07 13:36 33.98573 133.79499 40940 ft 552 kts 70°
2026-05-07 13:36 34.01044 133.88252 40937 ft 551 kts 70°
2026-05-07 13:37 34.03442 133.97039 40938 ft 552 kts 75°
2026-05-07 13:37 34.05255 134.06038 40939 ft 552 kts 76°
2026-05-07 13:38 34.06659 134.13550 40942 ft 552 kts 77°
2026-05-07 13:38 34.08296 134.22543 40938 ft 552 kts 77°
2026-05-07 13:39 34.10198 134.33044 40937 ft 551 kts 77°
2026-05-07 13:39 34.11832 134.42067 40938 ft 550 kts 77°
2026-05-07 13:40 34.13191 134.49590 40940 ft 550 kts 77°
2026-05-07 13:40 34.14683 134.57879 40939 ft 549 kts 77°
2026-05-07 13:41 34.16303 134.66918 40939 ft 549 kts 77°
2026-05-07 13:41 34.17910 134.75928 40938 ft 549 kts 77°
2026-05-07 13:42 34.19501 134.84888 40934 ft 549 kts 78°
2026-05-07 13:42 34.21095 134.93909 40931 ft 548 kts 78°
2026-05-07 13:43 34.22668 135.02928 40931 ft 548 kts 78°
2026-05-07 13:43 34.24199 135.11957 40932 ft 548 kts 78°
2026-05-07 13:44 34.25718 135.20986 40932 ft 548 kts 78°
2026-05-07 13:44 34.27224 135.29958 40933 ft 547 kts 78°
2026-05-07 13:45 34.28734 135.38983 40937 ft 547 kts 79°
2026-05-07 13:45 34.30239 135.48018 40936 ft 547 kts 79°
2026-05-07 13:46 34.31736 135.57043 40937 ft 547 kts 79°
2026-05-07 13:46 34.33226 135.66072 40939 ft 547 kts 79°
2026-05-07 13:47 34.34710 135.75109 40944 ft 547 kts 79°
2026-05-07 13:47 34.36178 135.84095 40946 ft 547 kts 79°
2026-05-07 13:48 34.37645 135.93120 40943 ft 547 kts 79°
2026-05-07 13:48 34.39071 136.02027 40946 ft 547 kts 79°
2026-05-07 13:49 34.40526 136.11056 40939 ft 546 kts 79°
2026-05-07 13:49 34.41982 136.20086 40945 ft 546 kts 79°
2026-05-07 13:50 34.43388 136.29126 40940 ft 544 kts 81°
2026-05-07 13:50 34.44522 136.38141 40933 ft 544 kts 83°
2026-05-07 13:51 34.45579 136.47218 40932 ft 543 kts 83°
2026-05-07 13:51 34.46650 136.56278 40932 ft 543 kts 83°
2026-05-07 13:52 34.47736 136.65349 40927 ft 543 kts 83°
2026-05-07 13:52 34.48817 136.74363 40928 ft 543 kts 83°
2026-05-07 13:53 34.49895 136.83418 40927 ft 543 kts 83°
2026-05-07 13:53 34.50964 136.92469 40927 ft 542 kts 83°
2026-05-07 13:54 34.52028 137.01523 40927 ft 541 kts 83°
2026-05-07 13:54 34.53082 137.10562 40928 ft 540 kts 83°
2026-05-07 13:55 34.54123 137.19537 40930 ft 539 kts 83°
2026-05-07 13:55 34.55160 137.28537 40933 ft 537 kts 83°
2026-05-07 13:56 34.56176 137.37410 40939 ft 526 kts 83°
2026-05-07 13:56 34.57171 137.46154 40899 ft 522 kts 83°
2026-05-07 13:57 34.58156 137.54886 40607 ft 522 kts 83°
2026-05-07 13:57 34.58646 137.59248 40357 ft 522 kts 83°
2026-05-07 13:57 34.59136 137.63629 40110 ft 521 kts 84°
2026-05-07 13:57 34.59622 137.67985 39870 ft 521 kts 84°
2026-05-07 13:58 34.60106 137.72336 39633 ft 520 kts 84°
2026-05-07 13:58 34.60576 137.76585 39401 ft 519 kts 84°
2026-05-07 13:58 34.61056 137.80932 39166 ft 519 kts 84°
2026-05-07 13:58 34.61533 137.85274 38939 ft 518 kts 84°
2026-05-07 13:59 34.62009 137.89611 38708 ft 518 kts 84°
2026-05-07 13:59 34.62483 137.93953 38453 ft 518 kts 84°
2026-05-07 13:59 34.62954 137.98283 38181 ft 518 kts 84°
2026-05-07 13:59 34.63425 138.02628 37906 ft 519 kts 84°
2026-05-07 14:00 34.63896 138.06981 37556 ft 518 kts 84°
2026-05-07 14:00 34.64364 138.11313 36864 ft 518 kts 84°
2026-05-07 14:00 34.64832 138.15664 36059 ft 521 kts 84°
2026-05-07 14:00 34.65297 138.20044 35258 ft 523 kts 84°
2026-05-07 14:01 34.65748 138.24381 34465 ft 526 kts 84°
2026-05-07 14:01 34.66204 138.28805 33623 ft 529 kts 84°
2026-05-07 14:01 34.66664 138.33245 32767 ft 531 kts 84°
2026-05-07 14:01 34.67129 138.37700 31965 ft 531 kts 84°
2026-05-07 14:02 34.67594 138.42141 31177 ft 531 kts 84°
2026-05-07 14:02 34.68061 138.46595 30376 ft 531 kts 84°
2026-05-07 14:02 34.68528 138.51044 29468 ft 531 kts 84°
2026-05-07 14:02 34.68992 138.55495 28647 ft 529 kts 84°
2026-05-07 14:03 34.69450 138.59904 27950 ft 524 kts 84°
2026-05-07 14:03 34.69903 138.64282 27276 ft 519 kts 84°
2026-05-07 14:03 34.70350 138.68615 26645 ft 514 kts 84°
2026-05-07 14:03 34.70791 138.72906 26018 ft 509 kts 84°
2026-05-07 14:04 34.71224 138.77149 25406 ft 504 kts 84°
2026-05-07 14:04 34.71491 138.81372 24795 ft 497 kts 89°
2026-05-07 14:04 34.71568 138.85555 24197 ft 492 kts 91°
2026-05-07 14:04 34.71584 138.89690 23589 ft 487 kts 91°
2026-05-07 14:05 34.71565 138.93796 22864 ft 483 kts 92°
2026-05-07 14:05 34.71534 138.97857 22256 ft 477 kts 92°
2026-05-07 14:05 34.71501 139.01827 21982 ft 475 kts 92°
2026-05-07 14:05 34.71471 139.05851 21927 ft 476 kts 91°
2026-05-07 14:06 34.71444 139.09870 21939 ft 475 kts 91°
2026-05-07 14:06 34.71418 139.13885 21940 ft 475 kts 91°
2026-05-07 14:06 34.71393 139.17894 21938 ft 475 kts 91°
2026-05-07 14:06 34.71368 139.21904 21937 ft 475 kts 91°
2026-05-07 14:07 34.71341 139.25934 21934 ft 475 kts 92°
2026-05-07 14:07 34.71313 139.29899 21933 ft 475 kts 92°
2026-05-07 14:07 34.71285 139.33923 21932 ft 475 kts 92°
2026-05-07 14:07 34.71264 139.37937 21802 ft 474 kts 90°
2026-05-07 14:08 34.71686 139.41906 21549 ft 475 kts 76°
2026-05-07 14:08 34.72942 139.45610 21304 ft 474 kts 61°
2026-05-07 14:08 34.74656 139.49027 21076 ft 473 kts 57°
2026-05-07 14:08 34.76421 139.52403 20816 ft 472 kts 57°
2026-05-07 14:09 34.78154 139.55783 20573 ft 470 kts 58°
2026-05-07 14:09 34.79857 139.59176 20338 ft 469 kts 59°
2026-05-07 14:09 34.81537 139.62573 20097 ft 467 kts 59°
2026-05-07 14:09 34.83205 139.65971 19848 ft 466 kts 59°
2026-05-07 14:10 34.84858 139.69358 19609 ft 465 kts 59°
2026-05-07 14:10 34.86482 139.72693 19397 ft 463 kts 59°
2026-05-07 14:10 34.88119 139.76065 19164 ft 462 kts 59°
2026-05-07 14:10 34.89392 139.78689 18981 ft 461 kts 59°
2026-05-07 14:11 34.91018 139.81949 18746 ft 459 kts 56°
2026-05-07 14:11 34.93125 139.84855 18520 ft 457 kts 39°
2026-05-07 14:11 34.95785 139.86914 18297 ft 451 kts 22°
2026-05-07 14:11 34.98776 139.87962 18012 ft 444 kts
2026-05-07 14:12 35.01815 139.87980 17421 ft 432 kts 350°
2026-05-07 14:12 35.04796 139.87618 16830 ft 433 kts 356°
2026-05-07 14:12 35.07799 139.88100 16267 ft 439 kts 13°
2026-05-07 14:12 35.10602 139.89619 15693 ft 443 kts 30°
2026-05-07 14:13 35.12951 139.92044 15143 ft 444 kts 47°
2026-05-07 14:13 35.14650 139.95170 14608 ft 442 kts 65°
2026-05-07 14:13 35.15598 139.98724 14084 ft 438 kts 79°
2026-05-07 14:13 35.16131 140.02379 13535 ft 436 kts 84°
2026-05-07 14:14 35.16107 140.06040 12955 ft 428 kts 102°
2026-05-07 14:14 35.15244 140.09456 12366 ft 417 kts 120°
2026-05-07 14:14 35.13652 140.12328 11802 ft 404 kts 137°
2026-05-07 14:14 35.11669 140.14718 11251 ft 397 kts 142°
2026-05-07 14:15 35.09657 140.16995 10692 ft 390 kts 142°
2026-05-07 14:15 35.07716 140.19189 10178 ft 374 kts 142°
2026-05-07 14:15 35.05845 140.21305 9652 ft 369 kts 142°
2026-05-07 14:15 35.03983 140.23414 9060 ft 363 kts 142°
2026-05-07 14:16 35.02138 140.25493 8489 ft 357 kts 142°
2026-05-07 14:16 35.00167 140.27200 8112 ft 336 kts 160°
2026-05-07 14:16 34.98018 140.27872 8012 ft 306 kts 182°
2026-05-07 14:16 34.96035 140.27496 8011 ft 275 kts 205°
2026-05-07 14:17 34.94536 140.26246 8010 ft 255 kts 229°
2026-05-07 14:17 34.93553 140.24470 8010 ft 253 kts 240°
2026-05-07 14:17 34.92726 140.22569 8003 ft 254 kts 242°
2026-05-07 14:17 34.91918 140.20645 8004 ft 255 kts 242°
2026-05-07 14:18 34.91110 140.18723 8007 ft 255 kts 242°
2026-05-07 14:18 34.90307 140.16819 8003 ft 255 kts 242°
2026-05-07 14:18 34.89498 140.14897 8005 ft 255 kts 242°
2026-05-07 14:18 34.88688 140.12970 8002 ft 255 kts 243°
2026-05-07 14:19 34.88215 140.10896 8010 ft 258 kts 265°
2026-05-07 14:19 34.88547 140.08796 8003 ft 266 kts 289°
2026-05-07 14:19 34.89674 140.06968 8009 ft 278 kts 312°
2026-05-07 14:19 34.91201 140.05519 7989 ft 279 kts 317°
2026-05-07 14:20 34.92757 140.04131 7660 ft 276 kts 317°
2026-05-07 14:20 34.94323 140.02760 7219 ft 277 kts 318°
2026-05-07 14:20 34.95909 140.01410 6821 ft 277 kts 319°
2026-05-07 14:20 34.97496 140.00088 6419 ft 277 kts 320°
2026-05-07 14:21 34.99091 139.98777 6087 ft 275 kts 320°
2026-05-07 14:21 35.00686 139.97474 5997 ft 275 kts 320°
2026-05-07 14:21 35.02276 139.96178 5995 ft 275 kts 320°
2026-05-07 14:21 35.03864 139.94886 5991 ft 274 kts 320°
2026-05-07 14:22 35.05449 139.93598 5999 ft 274 kts 320°
2026-05-07 14:22 35.06991 139.92345 5989 ft 273 kts 320°
2026-05-07 14:22 35.08577 139.91058 5997 ft 274 kts 320°
2026-05-07 14:22 35.09625 139.90206 5995 ft 274 kts 320°
2026-05-07 14:23 35.11210 139.88914 5991 ft 274 kts 320°
2026-05-07 14:23 35.12792 139.87625 5992 ft 273 kts 320°
2026-05-07 14:23 35.14374 139.86339 5987 ft 272 kts 320°
2026-05-07 14:23 35.16461 139.84640 5988 ft 273 kts 320°
2026-05-07 14:24 35.17531 139.83769 5989 ft 273 kts 320°
2026-05-07 14:24 35.19630 139.82066 5984 ft 274 kts 322°
2026-05-07 14:24 35.20779 139.81334 5985 ft 279 kts 332°
2026-05-07 14:24 35.22639 139.80600 5847 ft 281 kts 339°
2026-05-07 14:25 35.24506 139.80009 5615 ft 281 kts 340°
2026-05-07 14:25 35.25798 139.79613 5450 ft 280 kts 340°
2026-05-07 14:25 35.27683 139.79031 5208 ft 279 kts 340°
2026-05-07 14:25 35.29573 139.78473 4956 ft 279 kts 344°
2026-05-07 14:26 35.31396 139.78417 4834 ft 287 kts
2026-05-07 14:26 35.33116 139.79245 4738 ft 294 kts 29°
2026-05-07 14:26 35.34759 139.80749 4612 ft 295 kts 36°
2026-05-07 14:26 35.36331 139.82342 4509 ft 290 kts 37°
2026-05-07 14:27 35.37848 139.83886 4393 ft 277 kts 37°
2026-05-07 14:27 35.39309 139.85363 4277 ft 266 kts 36°
2026-05-07 14:27 35.40715 139.86772 4164 ft 259 kts 36°
2026-05-07 14:27 35.42115 139.88165 4045 ft 259 kts 36°
2026-05-07 14:28 35.43497 139.89554 3922 ft 260 kts 38°
2026-05-07 14:28 35.44835 139.91090 3795 ft 260 kts 41°
2026-05-07 14:28 35.46105 139.92634 3689 ft 260 kts 42°
2026-05-07 14:28 35.47383 139.94202 3565 ft 260 kts 42°
2026-05-07 14:29 35.48658 139.95767 3440 ft 259 kts 42°
2026-05-07 14:29 35.49919 139.97313 3297 ft 256 kts 42°
2026-05-07 14:29 35.51187 139.98865 3043 ft 257 kts 42°
2026-05-07 14:29 35.52457 140.00401 2815 ft 252 kts 39°
2026-05-07 14:30 35.53911 140.01397 2699 ft 230 kts
2026-05-07 14:30 35.55378 140.01179 2591 ft 201 kts 327°
2026-05-07 14:30 35.56344 140.00125 2495 ft 176 kts 300°
2026-05-07 14:30 35.56922 139.98890 2310 ft 159 kts 287°
2026-05-07 14:31 35.57054 139.97629 2105 ft 141 kts 266°
2026-05-07 14:31 35.57020 139.96467 1900 ft 133 kts 265°
2026-05-07 14:31 35.57014 139.95398 1799 ft 130 kts 266°
2026-05-07 14:31 35.57017 139.94336 1751 ft 124 kts 265°
2026-05-07 14:32 35.57018 139.93278 1631 ft 122 kts 265°
2026-05-07 14:32 35.57013 139.92245 1369 ft 119 kts 265°
2026-05-07 14:32 35.57009 139.91228 1215 ft 120 kts 264°
2026-05-07 14:32 35.57002 139.90188 1071 ft 123 kts 264°
2026-05-07 14:33 35.56996 139.89132 945 ft 124 kts 265°
2026-05-07 14:33 35.56886 139.88077 913 ft 126 kts 250°
2026-05-07 14:33 35.56678 139.87227 854 ft 126 kts 248°
2026-05-07 14:33 35.56397 139.86361 740 ft 126 kts 239°
2026-05-07 14:34 35.56039 139.85377 641 ft 127 kts 243°
2026-05-07 14:34 35.55658 139.84398 522 ft 126 kts 239°
2026-05-07 14:34 35.55167 139.83531 401 ft 122 kts 226°
2026-05-07 14:34 35.54579 139.82797 242 ft 120 kts 218°
2026-05-07 14:35 35.53974 139.82113 92 ft 121 kts 218°
2026-05-07 14:35 35.53418 139.81490 51 ft 77 kts 222°
2026-05-07 14:35 35.53158 139.81200 51 ft 42 kts 222°
2026-05-07 14:35 35.52969 139.80951 47 ft 37 kts 241°
2026-05-07 14:36 35.52887 139.80699 48 ft 20 kts 261°
2026-05-07 14:36 35.52944 139.80566 48 ft 19 kts 325°
2026-05-07 14:36 35.53029 139.80506 49 ft 15 kts 330°
2026-05-07 14:36 35.53131 139.80435 52 ft 20 kts 330°
2026-05-07 14:37 35.53268 139.80338 46 ft 26 kts 330°
2026-05-07 14:37 35.53588 139.80108 32 ft 22 kts 329°
2026-05-07 14:37 35.53738 139.80002 28 ft 27 kts 330°
2026-05-07 14:38 35.53912 139.79880 28 ft 30 kts 329°
2026-05-07 14:38 35.54095 139.79749 27 ft 30 kts 329°
2026-05-07 14:38 35.54280 139.79618 27 ft 31 kts 330°
2026-05-07 14:38 35.54426 139.79514 29 ft 22 kts 329°
2026-05-07 14:39 35.54510 139.79454 29 ft 8 kts 330°
2026-05-07 14:39 35.54537 139.79435 31 ft 4 kts 329°
2026-05-07 14:39 35.54566 139.79414 32 ft 6 kts 329°
2026-05-07 14:39 35.54633 139.79363 33 ft 15 kts 319°
2026-05-07 14:40 35.54624 139.79258 37 ft 13 kts 242°
2026-05-07 14:40 35.54568 139.79135 42 ft 20 kts 240°
2026-05-07 14:40 35.54488 139.78966 46 ft 25 kts 240°
2026-05-07 14:40 35.54394 139.78771 39 ft 29 kts 239°
2026-05-07 14:41 35.54303 139.78580 34 ft 19 kts 240°
2026-05-07 14:41 35.54350 139.78460 30 ft 16 kts 329°
2026-05-07 14:41 35.54447 139.78389 30 ft 18 kts 329°
2026-05-07 14:41 35.54504 139.78358 30 ft 3 kts
2026-05-07 14:42 35.54516 139.78383 28 ft 5 kts 71°
2026-05-07 14:42 35.54525 139.78425 29 ft 3 kts 76°
2026-05-07 14:42 35.54528 139.78444 29 ft 1 kts 77°
2026-05-07 14:42 35.54529 139.78447 29 ft 0 kts 77°
2026-05-07 14:43 35.54531 139.78455 29 ft 0 kts 77°